Date String (YYYY-MM-DD hh:mm:ss) UTC,Instrument flags,Ambient pressure (hPa),Sample flow (lpm),Bypass flow (lpm),Sample temperature (°C),Ambient temperature (°C),ASC tube jacket temperature (°C),LED temperature (°C),Box temperature (°C),Sample RH (%),Span deviation,Mass concentration (μg/m³),Mass concentration (μg/m³),Mass concentration (μg/m³)
DateTimeUTC,F1_M11,P_M11,Q1_M11,Q2_M11,T1_M11,T2_M11,T3_M11,T4_M11,T5_M11,U1_M11,ZSPAN_M11,X0_M11,X2_M11,X1_M11
2022-12-30 13:00:00,,0819.7,5.02,0.00,22.4,21.3,00.0,31.2,24.1,07.0,0000.0,0002.32,0001.34,0001.09
2022-12-30 13:01:00,,0819.7,5.03,0.00,22.4,21.2,00.0,31.2,24.1,07.0,0000.0,0002.23,0001.31,0001.07
2022-12-30 13:02:00,,0819.7,4.99,0.00,22.4,21.1,00.0,31.2,24.1,07.0,0000.0,0002.20,0001.27,0001.04
2022-12-30 13:03:00,,0819.7,4.96,0.00,22.4,21.0,00.0,31.2,24.1,06.9,0000.0,0002.09,0001.21,0001.00
2022-12-30 13:04:00,,0819.7,5.03,0.00,22.3,20.9,00.0,31.2,24.0,06.9,0000.0,0001.99,0001.15,0000.96
2022-12-30 13:05:00,,0819.7,5.02,0.00,22.3,20.9,00.0,31.2,24.0,06.9,0000.0,0002.13,0001.13,0000.91
2022-12-30 13:06:00,,0819.7,4.99,0.00,22.3,20.7,00.0,31.2,23.9,07.0,0000.0,0002.34,0001.09,0000.88
2022-12-30 13:07:00,,0819.7,4.99,0.00,22.2,20.5,00.0,31.2,23.8,07.0,0000.0,0002.25,0001.06,0000.84
2022-12-30 13:08:00,,0819.6,5.00,0.00,22.2,20.5,00.0,31.1,23.8,06.9,0000.0,0002.10,0001.01,0000.81
2022-12-30 13:09:00,,0819.5,4.98,0.00,22.1,20.4,00.0,31.1,23.7,07.0,0000.0,0002.19,0001.02,0000.79
2022-12-30 13:10:00,,0819.5,4.99,0.00,22.1,20.3,00.0,31.1,23.7,07.0,0000.0,0002.11,0000.99,0000.78
2022-12-30 13:11:00,,0819.5,4.99,0.00,22.1,20.6,00.0,31.0,23.7,07.1,0000.0,0002.07,0000.99,0000.78
2022-12-30 13:12:00,,0819.6,5.00,0.00,22.2,21.7,00.0,31.0,24.0,07.2,0000.0,0002.10,0001.00,0000.78
2022-12-30 13:13:00,,0819.6,5.02,0.00,22.3,22.7,00.0,31.0,24.3,07.1,0000.0,0002.12,0001.00,0000.78
2022-12-30 13:14:00,,0819.7,4.98,0.00,22.4,22.7,00.0,31.0,24.4,07.0,0000.0,0002.19,0001.04,0000.78
2022-12-30 13:15:00,,0819.7,4.99,0.00,22.4,22.3,00.0,31.1,24.3,07.1,0000.0,0002.29,0001.09,0000.79
2022-12-30 13:16:00,,0819.5,5.02,0.00,22.4,21.9,00.0,31.1,24.2,07.1,0000.0,0002.19,0001.10,0000.80
2022-12-30 13:17:00,,0819.6,5.02,0.00,22.4,21.6,00.0,31.2,24.2,07.1,0000.0,0001.98,0001.10,0000.81
2022-12-30 13:18:00,,0819.5,5.00,0.00,22.4,21.4,00.0,31.2,24.1,07.1,0000.0,0001.77,0001.11,0000.82
2022-12-30 13:19:00,,0819.5,4.98,0.00,22.4,21.3,00.0,31.2,24.1,07.1,0000.0,0001.83,0001.15,0000.82
2022-12-30 13:20:00,,0819.6,4.99,0.00,22.4,21.1,00.0,31.2,24.1,07.2,0000.0,0001.78,0001.16,0000.86
2022-12-30 13:21:00,,0819.7,5.09,0.00,22.3,20.7,00.0,31.2,23.9,07.2,0000.0,0001.81,0001.19,0000.87
2022-12-30 13:22:00,,0819.6,5.00,0.00,22.2,20.3,00.0,31.2,23.7,07.3,0000.0,0001.92,0001.23,0000.88
2022-12-30 13:23:00,,0819.6,4.98,0.00,22.1,20.2,00.0,31.1,23.7,07.4,0000.0,0002.57,0001.31,0000.90
2022-12-30 13:24:00,,0819.7,4.98,0.00,22.1,20.2,00.0,31.1,23.7,07.4,0000.0,0002.94,0001.40,0000.92
2022-12-30 13:25:00,,0819.6,5.01,0.00,22.1,20.3,00.0,31.1,23.7,07.4,0000.0,0003.05,0001.42,0000.95
2022-12-30 13:26:00,,0819.5,5.07,0.00,22.1,20.3,00.0,31.1,23.7,07.4,0000.0,0003.09,0001.45,0000.98
2022-12-30 13:27:00,,0819.5,4.98,0.00,22.0,20.4,00.0,31.0,23.7,07.4,0000.0,0003.12,0001.42,0000.99
2022-12-30 13:28:00,,0819.6,4.96,0.00,22.0,20.4,00.0,31.0,23.7,07.4,0000.0,0003.73,0001.50,0001.02
2022-12-30 13:29:00,,0819.5,4.98,0.00,22.1,21.2,00.0,31.0,23.9,07.4,0000.0,0003.91,0001.52,0001.04
2022-12-30 13:30:00,,0819.5,5.00,0.00,22.2,22.3,00.0,31.0,24.2,07.4,0000.0,0004.52,0001.54,0001.06
2022-12-30 13:31:00,,0819.5,5.02,0.00,22.3,23.0,00.0,31.0,24.4,07.3,0000.0,0004.61,0001.58,0001.08
2022-12-30 13:32:00,,0819.4,4.99,0.00,22.4,22.7,00.0,31.0,24.4,07.3,0000.0,0004.64,0001.59,0001.09
2022-12-30 13:33:00,,0819.4,4.96,0.00,22.4,22.3,00.0,31.1,24.3,07.2,0000.0,0004.60,0001.59,0001.10
2022-12-30 13:34:00,,0819.3,5.00,0.00,22.4,21.9,00.0,31.1,24.2,07.3,0000.0,0004.07,0001.52,0001.10
2022-12-30 13:35:00,,0819.3,5.05,0.00,22.4,21.6,00.0,31.1,24.2,07.3,0000.0,0004.75,0001.44,0001.09
2022-12-30 13:36:00,,0819.2,5.01,0.00,22.4,21.4,00.0,31.2,24.1,07.2,0000.0,0005.02,0001.45,0001.09
2022-12-30 13:37:00,,0819.3,4.98,0.00,22.4,21.2,00.0,31.2,24.1,07.0,0000.0,0005.05,0001.46,0001.09
2022-12-30 13:38:00,,0819.3,4.97,0.00,22.4,21.1,00.0,31.2,24.1,06.8,0000.0,0005.06,0001.44,0001.07
2022-12-30 13:39:00,,0819.3,5.02,0.00,22.3,21.0,00.0,31.2,24.1,06.8,0000.0,0004.96,0001.38,0001.06
2022-12-30 13:40:00,,0819.2,5.03,0.00,22.3,20.9,00.0,31.2,24.0,06.9,0000.0,0004.81,0001.36,0001.05
2022-12-30 13:41:00,,0819.2,5.00,0.00,22.3,20.9,00.0,31.2,24.0,06.9,0000.0,0004.09,0001.35,0001.05
2022-12-30 13:42:00,,0819.3,4.98,0.00,22.3,20.9,00.0,31.2,24.0,06.9,0000.0,0004.09,0001.36,0001.03
2022-12-30 13:43:00,,0819.3,4.98,0.00,22.3,20.8,00.0,31.1,24.0,06.9,0000.0,0004.13,0001.37,0001.03
2022-12-30 13:44:00,,0819.2,5.02,0.00,22.3,20.8,00.0,31.1,24.0,07.1,0000.0,0004.10,0001.37,0001.04
2022-12-30 13:45:00,,0819.2,5.02,0.00,22.3,20.8,00.0,31.1,24.0,07.0,0000.0,0004.09,0001.38,0001.04
2022-12-30 13:46:00,,0819.3,4.98,0.00,22.2,20.7,00.0,31.1,23.9,07.1,0000.0,0003.00,0001.43,0001.05
2022-12-30 13:47:00,,0819.2,4.97,0.00,22.2,20.7,00.0,31.1,23.9,07.1,0000.0,0002.73,0001.42,0001.06
2022-12-30 13:48:00,,0819.3,5.02,0.00,22.2,20.7,00.0,31.1,23.9,07.1,0000.0,0002.76,0001.44,0001.07
2022-12-30 13:49:00,,0819.4,5.03,0.00,22.2,20.7,00.0,31.1,23.9,07.1,0000.0,0003.05,0001.50,0001.10
2022-12-30 13:50:00,,0819.4,4.99,0.00,22.3,21.5,00.0,31.0,24.1,07.1,0000.0,0003.27,0001.55,0001.12
2022-12-30 13:51:00,,0819.4,4.96,0.00,22.4,22.4,00.0,31.0,24.3,07.1,0000.0,0003.28,0001.56,0001.13
2022-12-30 13:52:00,,0819.4,5.03,0.00,22.5,22.9,00.0,31.1,24.5,07.2,0000.0,0003.84,0001.60,0001.15
2022-12-30 13:53:00,,0819.4,5.02,0.00,22.5,22.5,00.0,31.1,24.5,07.2,0000.0,0005.51,0001.58,0001.18
2022-12-30 13:54:00,,0819.4,4.98,0.00,22.5,22.2,00.0,31.2,24.4,07.3,0000.0,0005.53,0001.60,0001.20
2022-12-30 13:55:00,,0819.4,4.96,0.00,22.5,21.9,00.0,31.2,24.3,07.4,0000.0,0005.71,0001.68,0001.24
2022-12-30 13:56:00,,0819.5,5.06,0.00,22.5,21.6,00.0,31.2,24.3,07.3,0000.0,0005.85,0001.73,0001.28
2022-12-30 13:57:00,,0819.6,5.02,0.00,22.5,21.4,00.0,31.2,24.2,07.3,0000.0,0005.93,0001.75,0001.30
2022-12-30 13:58:00,,0819.7,4.98,0.00,22.5,21.3,00.0,31.3,24.2,07.3,0000.0,0005.84,0001.74,0001.32
2022-12-30 13:59:00,,0819.7,4.99,0.00,22.5,21.2,00.0,31.3,24.2,07.3,0000.0,0006.00,0001.76,0001.34
